Regional Weather Roundup
Issued by NWS

Home | Current Version | Previous Version | Text Only | Print | Product List | Glossary Off
Versions: 1 2 3 4 5 6 7 8 9 10 11 12 13 14 15 16 17 18 19 20 21 22 23 24 25 26 27

000
ASUS45 KSLC 260110
RWRUT

UTAH REGIONAL WEATHER ROUNDUP
NATIONAL WEATHER SERVICE SALT LAKE CITY UT
700 PM MDT THU AUG 25 2016

UTZ001>011-023>025-260200-

NORTHERN UTAH

CITY           SKY/WX    TMP DP  RH WIND       PRES   REMARKS
BRIGHAM CITY     N/A     81  15   8 S6        30.00S
HILL AFB         N/A     78  27  15 N3        30.02F
LOGAN          SUNNY     79  23  12 S6        30.00F
OGDEN            N/A     80  23  12 CALM      30.00F
PROVO AIRPORT  PTSUNNY   79  36  21 CALM      30.00F
SALT LAKE CITY MOSUNNY   83  26  12 VRB6      29.98F
VERNAL         CLOUDY    72  37  28 SW5       30.13R
WENDOVER       SUNNY     81  27  13 E5        29.99S
HEBER CITY     CLOUDY    73  28  19 SW10      30.06S
WEST JORDAN    MOSUNNY   79  32  18 NW9       30.01F

$$

UTZ012>022-026-027-260200-

SOUTHERN/CENTRAL UTAH

CITY           SKY/WX    TMP DP  RH WIND       PRES   REMARKS
BLANDING       CLOUDY    59  49  70 W30G37    30.29R
BRYCE CANYON   LGT RAIN  54  48  80 N7        30.29F
CEDAR CITY     CLOUDY    69  43  38 NW10      30.12F
MILFORD        CLOUDY    70  43  37 SW16      30.08R
MOAB/CYNLANDS  CLOUDY    70  43  37 E15       30.10R
PRICE          PTSUNNY   68  37  32 SE12      30.14F
ST GEORGE      CLOUDY    86  45  23 NE23G29   29.91R

$$

REGIONAL REPORTS     COLORADO/ARIZONA

CITY           SKY/WX    TMP DP  RH WIND       PRES   REMARKS
CRAIG, CO      CLOUDY    67  31  26 W7        30.18R
GRAND JUNCTION LGT RAIN  58  53  84 NE15      30.21F
RIFLE          RAIN      55  49  80 W20G35    30.27R
MONTROSE       LGT RAIN  58  48  69 N12       30.28R
CORTEZ         LGT RAIN  61  48  62 W20G30    30.25R
PAGE, AZ       LGT RAIN  70  52  52 NW10      30.14R
GRAND CANYON   CLOUDY    57  52  83 VRB5      30.22F
KINGMAN        SUNNY     89  46  22 S20       29.95F
FLAGSTAFF      TSTM      56  52  86 VRB3      30.29R

$$

REGIONAL REPORTS    NEVADA/IDAHO/WYOMING

CITY           SKY/WX    TMP DP  RH WIND       PRES   REMARKS
LAS VEGAS, NV  MOSUNNY   98  28   8 W14       29.77S HX  92
ELY            PTSUNNY   75  26  16 N7        30.08S
ELKO           SUNNY     80  12   7 W10       30.03S
POCATELLO, ID  SUNNY     77  27  15 NW6       30.03F
BURLEY         SUNNY     75  34  22 W7        29.99F
EVANSTON, WY   CLOUDY    68  18  14 NW14      30.17S
ROCK SPRINGS   CLOUDY    63  32  31 S18       30.17F

$$




USA.gov is the U.S. government's official web portal to all federal, state and local government web resources and services.